Weather reports worldwide

Advertisment
Aviemore, United Kingdom (3063): temperature & dewpoint: 19.05.2019 23:00:00 - 25.05.2019 23:00:00 (BST)Aviemore, United Kingdom (3063): temperature -20cm & temperature -100cm: 19.05.2019 23:00:00 - 25.05.2019 23:00:00 (BST)Aviemore, United Kingdom (3063): wind speed & gusts: 19.05.2019 23:00:00 - 25.05.2019 23:00:00 (BST)Aviemore, United Kingdom (3063): wind direction: 19.05.2019 23:00:00 - 25.05.2019 23:00:00 (BST)Aviemore, United Kingdom (3063): reduced air pressure: 19.05.2019 23:00:00 - 25.05.2019 23:00:00 (BST)Aviemore, United Kingdom (3063): visibility: 19.05.2019 23:00:00 - 25.05.2019 23:00:00 (BST)Aviemore, United Kingdom (3063): sunshine duration: 19.05.2019 23:00:00 - 25.05.2019 23:00:00 (BST)Aviemore, United Kingdom (3063): precipitation: 19.05.2019 23:00:00 - 25.05.2019 23:00:00 (BST)
Date & Time tt [°C] td [°C] tt -20cm [°C] tt -100cm [°C] ff [km/h] ff [kn] fx [km/h] fx [kn] dd ppp [hPa] vv [km] sd [min] rr [mm]
25.05.2019 23:00:00 8,6 8,2 - - 4 2 - - NNE 1011,0 5 0 1,2
25.05.2019 22:00:00 8,8 8,3 - - 8 4 - - NE 1011,1 2,2 0 1,2
25.05.2019 21:00:00 9,9 9,4 - - 4 2 - - NE 1010,8 5 0 1,2
25.05.2019 20:00:00 10,3 9,6 - - 4 2 - - SSE 1011,0 4,7 0 0,8
25.05.2019 19:00:00 10,4 9,5 - - 4 2 - - SSE 1011,5 3,4 0 0,8
25.05.2019 18:00:00 10,6 9,8 - - 2 1 - - ESE 1012,0 4,9 0 0,8
25.05.2019 17:00:00 10,5 9,0 - - 5 3 - - ESE 1012,7 4,5 0 0,4
25.05.2019 16:00:00 10,4 8,0 - - 4 2 - - S 1013,5 8 0 0,2
25.05.2019 15:00:00 10,7 7,3 - - 5 3 - - SSW 1013,9 18 0 0,4
25.05.2019 14:00:00 10,8 7,4 - - 5 3 - - SW 1014,4 30 0 0,2
25.05.2019 13:00:00 10,7 6,5 - - 8 4 - - SSW 1014,8 19 0 0,0
25.05.2019 12:00:00 10,6 5,8 - - 8 4 - - S 1015,2 21 0 0,0
25.05.2019 11:00:00 9,5 6,4 - - 5 3 - - SSW 1016,2 12 0 0,0
25.05.2019 10:00:00 9,2 5,1 11,7 10,2 8 4 - - SSW 1016,8 20 0 0,0
25.05.2019 09:00:00 8,6 5,1 - - 5 3 - - SSW 1016,9 20 0 0,0
25.05.2019 08:00:00 7,3 5,2 - - 4 2 - - SSE 1017,3 18 0 0,0
25.05.2019 07:00:00 5,3 4,5 - - 2 1 - - E 1017,6 15 0 0,0
25.05.2019 06:00:00 3,8 3,5 - - 2 1 - - SW 1018,1 13 0 0,0
25.05.2019 05:00:00 3,1 2,5 - - 2 1 - - S 1018,2 11 0 0,0
25.05.2019 04:00:00 3,6 2,9 - - 4 2 - - WSW 1018,4 13 0 0,0
25.05.2019 03:00:00 3,9 2,9 - - 2 1 - - NW 1018,6 13 0 0,0
25.05.2019 02:00:00 4,5 3,2 - - 4 2 - - W 1018,6 16 0 0,0
25.05.2019 01:00:00 5,4 2,8 - - 2 1 - - SSW 1018,7 21 - 0,0
25.05.2019 00:00:00 7,2 3,9 - - 9 5 - - WNW 1018,5 22 0 0,0
24.05.2019 23:00:00 7,3 4,2 - - 2 1 - - WSW 1018,3 16 0 0,0
24.05.2019 22:00:00 9,2 4,4 - - 4 2 - - NE 1018,0 18 0 0,0
24.05.2019 21:00:00 9,8 4,4 - - 4 2 - - W 1017,7 17 0 0,0
24.05.2019 20:00:00 10,4 4,5 - - 8 4 - - N 1017,3 18 0 0,0
24.05.2019 19:00:00 11,2 3,6 - - 9 5 - - NNW 1016,6 17 12 0,0
24.05.2019 18:00:00 12,8 3,2 - - 5 3 - - NW 1016,1 24 30 0,0
24.05.2019 17:00:00 14,2 3,7 - - 8 4 - - NNW 1015,7 30 30 0,0
24.05.2019 16:00:00 12,9 5,3 - - 5 3 - - NW 1016,1 22 6 0,0
24.05.2019 15:00:00 12,8 4,6 - - 8 4 - - W 1015,9 24 6 0,0
24.05.2019 14:00:00 12,9 4,3 - - 9 5 - - NW 1015,5 35 42 0,0
24.05.2019 13:00:00 14,6 6,2 - - 8 4 - - WSW 1015,1 28 36 0,0
24.05.2019 12:00:00 12,3 5,2 - - 8 4 - - WNW 1015,4 28 6 0,0
24.05.2019 11:00:00 10,9 4,7 - - 8 4 - - WNW 1015,7 40 0 0,0
24.05.2019 10:00:00 10,0 3,8 11,7 10,0 4 2 - - E 1015,9 40 0 0,0
24.05.2019 09:00:00 9,1 4,2 - - 5 3 - - WSW 1015,6 50 0 0,0
24.05.2019 08:00:00 8,8 4,3 - - 8 4 - - SSW 1015,3 45 0 0,0
24.05.2019 07:00:00 7,8 4,3 - - 8 4 - - SSW 1014,9 50 0 0,0
24.05.2019 06:00:00 7,7 4,1 - - 8 4 - - WSW 1014,5 50 0 0,0
24.05.2019 05:00:00 7,5 4,2 - - 5 3 - - SE 1014,3 40 0 0,0
24.05.2019 04:00:00 7,5 4,2 - - 9 5 - - W 1013,9 50 0 0,0
24.05.2019 03:00:00 8,0 4,4 - - 8 4 - - W 1013,8 50 0 0,0
24.05.2019 02:00:00 8,2 4,9 - - 5 3 - - SW 1013,6 50 0 0,0
24.05.2019 01:00:00 8,3 4,5 - - 4 2 - - SSW 1013,5 50 - 0,0
24.05.2019 00:00:00 8,4 4,6 - - 9 5 - - SW 1013,1 45 0 0,0
23.05.2019 23:00:00 8,6 4,5 - - 9 5 - - SSE 1012,6 45 0 0,0
23.05.2019 22:00:00 9,0 4,6 - - 5 3 - - S 1012,7 45 0 0,0
23.05.2019 21:00:00 9,9 4,8 - - 4 2 - - WSW 1012,3 45 0 0,0
23.05.2019 20:00:00 10,3 5,3 - - 9 5 - - SW 1012,1 50 0 0,0
23.05.2019 19:00:00 10,7 5,4 - - 8 4 - - SW 1011,6 50 0 0,0
23.05.2019 18:00:00 10,9 5,5 - - 11 6 - - SW 1011,6 50 0 0,0
23.05.2019 17:00:00 11,5 5,9 - - 9 5 - - SW 1011,4 50 18 0,0
23.05.2019 16:00:00 13,7 5,7 - - 13 7 - - WSW 1010,8 26 12 0,0
23.05.2019 15:00:00 13,2 5,6 - - 13 7 - - WSW 1010,7 40 6 0,0
23.05.2019 14:00:00 12,6 6,3 - - 15 8 46 25 WSW 1010,8 30 0 0,0
23.05.2019 13:00:00 12,3 6,6 - - 11 6 - - SW 1010,8 50 0 0,0
23.05.2019 12:00:00 11,7 6,1 - - 11 6 - - WSW 1011,0 35 0 0,2
23.05.2019 11:00:00 10,8 7,5 - - 8 4 - - SW 1011,2 50 0 0,0
23.05.2019 10:00:00 10,1 6,9 11,7 10,0 13 7 - - SW 1011,4 50 0 0,0
23.05.2019 09:00:00 8,6 7,2 - - 5 3 - - SSW 1011,7 30 0 0,8
23.05.2019 08:00:00 8,2 7,1 - - 4 2 - - SSW 1012,1 25 0 0,4
23.05.2019 07:00:00 8,2 7,0 - - 2 1 - - S 1011,9 14 0 0,6
23.05.2019 06:00:00 8,2 6,6 - - 4 2 - - SSW 1011,9 23 0 0,2
23.05.2019 05:00:00 8,8 5,9 - - 5 3 - - WSW 1012,0 50 0 0,0
23.05.2019 04:00:00 8,9 6,1 - - 8 4 - - WSW 1012,3 50 0 0,0
23.05.2019 03:00:00 8,7 6,0 - - 11 6 - - W 1012,6 50 0 0,0
23.05.2019 02:00:00 9,0 6,3 - - 8 4 - - WSW 1012,5 50 0 0,0
23.05.2019 01:00:00 8,7 6,7 - - 4 2 - - N 1012,8 50 - 0,0
23.05.2019 00:00:00 8,2 6,9 - - 2 1 - - SW 1013,4 45 0 0,2
22.05.2019 23:00:00 8,6 7,0 - - 4 2 - - W 1013,8 18 0 0,2
22.05.2019 22:00:00 8,6 7,3 - - 5 3 - - SW 1013,9 7 0 0,8
22.05.2019 21:00:00 9,1 7,2 - - 5 3 - - WSW 1014,1 5 0 0,4
22.05.2019 20:00:00 9,5 7,1 - - 9 5 - - WSW 1013,8 13 0 0,2
22.05.2019 19:00:00 10,4 7,4 - - 5 3 - - ESE 1013,9 12 0 0,2
22.05.2019 18:00:00 10,9 7,6 - - 4 2 - - W 1014,1 12 18 0,0
22.05.2019 17:00:00 12,1 7,7 - - 8 4 - - WNW 1014,2 17 24 0,0
22.05.2019 16:00:00 11,5 7,8 - - 9 5 - - W 1014,5 14 6 0,2
22.05.2019 15:00:00 11,7 7,8 - - 5 3 - - NW 1014,7 45 6 0,0
22.05.2019 14:00:00 10,7 8,2 - - 9 5 - - W 1015,0 25 0 0,2
22.05.2019 13:00:00 10,5 7,8 - - 8 4 - - W 1015,2 10 0 0,0
22.05.2019 12:00:00 10,0 8,0 - - 5 3 - - W 1015,3 10 0 1,2
22.05.2019 11:00:00 9,6 7,2 - - 5 3 - - W 1015,6 35 0 0,6
22.05.2019 10:00:00 9,4 7,1 11,7 10,0 5 3 - - SW 1015,6 16 0 0,0
22.05.2019 09:00:00 7,1 6,4 - - 5 3 - - SSW 1016,0 45 0 0,4
22.05.2019 08:00:00 6,1 5,4 - - 5 3 - - S 1016,3 16 0 1,0
22.05.2019 07:00:00 5,6 4,8 - - 4 2 - - S 1016,8 22 0 0,6
22.05.2019 06:00:00 5,2 4,4 - - 5 3 - - SSW 1016,9 10 0 3,2
22.05.2019 05:00:00 5,1 3,7 - - 4 2 - - SSW 1017,4 12 0 0,6
22.05.2019 04:00:00 5,2 3,2 - - 8 4 - - SSW 1017,7 40 0 0,0
22.05.2019 03:00:00 5,1 3,5 - - 5 3 - - SW 1017,9 50 0 0,0
22.05.2019 02:00:00 3,5 2,9 - - 4 2 - - W 1018,5 50 0 0,0
22.05.2019 01:00:00 5,0 4,0 - - 5 3 - - W 1018,8 50 - 0,0
22.05.2019 00:00:00 5,1 4,1 - - 4 2 - - W 1019,0 50 0 0,0
21.05.2019 23:00:00 7,1 5,2 - - 4 2 - - WNW 1018,8 50 0 0,0
21.05.2019 22:00:00 7,3 6,5 - - 2 1 - - WNW 1018,9 50 0 0,0
21.05.2019 21:00:00 8,1 6,5 - - 4 2 - - W 1018,7 50 0 0,0
21.05.2019 20:00:00 8,7 6,4 - - 4 2 - - WSW 1018,6 50 0 0,6
21.05.2019 19:00:00 8,9 5,7 - - 5 3 - - WNW 1018,8 4,0 0 0,8
21.05.2019 18:00:00 11,7 4,0 - - 8 4 - - NW 1017,8 50 24 0,0
21.05.2019 17:00:00 12,5 5,0 - - 9 5 - - NW 1017,5 30 18 0,0
21.05.2019 16:00:00 12,4 5,8 - - 5 3 - - SSE 1017,7 50 12 0,0
21.05.2019 15:00:00 12,9 3,1 - - 5 3 - - NNW 1017,8 30 30 0,0
21.05.2019 14:00:00 11,7 5,0 - - 11 6 - - NNW 1018,2 24 18 0,0
21.05.2019 13:00:00 11,2 5,0 - - 8 4 - - ESE 1018,3 9 6 0,0
21.05.2019 12:00:00 10,7 5,8 - - 4 2 - - W 1018,5 45 0 0,0
21.05.2019 11:00:00 9,9 6,8 - - 4 2 - - ENE 1018,6 50 0 0,0
21.05.2019 10:00:00 8,6 6,6 11,7 9,9 5 3 - - N 1018,7 24 0 0,0
21.05.2019 09:00:00 8,4 6,8 - - 4 2 - - NW 1018,5 35 0 0,0
21.05.2019 08:00:00 7,5 7,2 - - 0 0 - - N 1018,1 45 0 0,0
21.05.2019 07:00:00 7,3 7,0 - - 2 1 - - N 1017,9 26 0 0,2
21.05.2019 06:00:00 6,9 6,6 - - 0 0 - - N 1017,9 9 0 1,6
21.05.2019 05:00:00 7,0 6,7 - - 2 1 - - NW 1017,6 10 0 1,8
21.05.2019 04:00:00 7,2 6,7 - - 2 1 - - W 1017,5 11 0 1,8
21.05.2019 03:00:00 7,6 6,6 - - 4 2 - - NNW 1017,2 7 0 3,4
21.05.2019 02:00:00 8,2 7,9 - - 4 2 - - ENE 1016,9 7 0 2,6
21.05.2019 01:00:00 8,4 8,0 - - 0 0 - - N 1016,8 8 - 1,2
21.05.2019 00:00:00 8,7 8,1 - - 2 1 - - W 1016,6 11 0 0,4
20.05.2019 23:00:00 9,0 8,1 - - 4 2 - - NW 1016,3 13 0 1,6
20.05.2019 22:00:00 9,2 8,7 - - 2 1 - - WSW 1016,0 5 0 1,8
20.05.2019 21:00:00 9,5 8,7 - - 2 1 - - S 1015,5 17 0 1,0
20.05.2019 20:00:00 10,0 8,1 - - 5 3 - - NNW 1015,0 50 0 0,0
20.05.2019 19:00:00 10,2 8,7 - - 8 4 - - NW 1014,7 14 0 1,8
20.05.2019 18:00:00 11,4 8,7 - - 5 3 - - NNW 1014,3 19 0 0,0
20.05.2019 17:00:00 12,0 10,0 - - 4 2 - - ENE 1013,8 16 0 0,6
20.05.2019 16:00:00 12,3 8,5 - - 8 4 - - E 1013,6 50 0 0,0
20.05.2019 15:00:00 12,3 8,9 - - 8 4 - - NW 1013,1 40 0 0,0
20.05.2019 14:00:00 12,7 8,4 - - 5 3 - - W 1013,0 40 6 0,0
20.05.2019 13:00:00 12,5 9,0 - - 9 5 - - NNE 1012,7 14 0 0,0
20.05.2019 12:00:00 12,1 10,5 - - 4 2 - - ESE 1012,9 22 0 0,8
20.05.2019 11:00:00 11,1 8,9 - - 4 2 - - ENE 1013,0 8 0 0,4
20.05.2019 10:00:00 11,3 8,7 11,7 9,7 2 1 - - NNE 1012,7 26 0 0,0
20.05.2019 09:00:00 11,3 9,0 - - 4 2 - - SE 1012,6 30 0 0,0
20.05.2019 08:00:00 10,2 8,9 - - 4 2 - - S 1012,3 40 0 0,0
20.05.2019 07:00:00 9,4 9,1 - - 2 1 - - SSW 1012,1 30 0 0,0
20.05.2019 06:00:00 9,0 8,8 - - 2 1 - - WSW 1011,8 16 0 0,0
20.05.2019 05:00:00 8,9 8,6 - - 2 1 - - W 1011,6 7 0 0,0
20.05.2019 04:00:00 9,0 8,7 - - 2 1 - - W 1011,5 11 0 0,0
20.05.2019 03:00:00 9,2 8,9 - - 2 1 - - W 1011,6 12 0 0,2
20.05.2019 02:00:00 9,4 9,1 - - 2 1 - - W 1011,6 12 0 0,0
20.05.2019 01:00:00 9,5 9,1 - - 2 1 - - SW 1011,6 11 - 0,2
20.05.2019 00:00:00 9,8 9,4 - - 2 1 - - W 1011,5 14 0 0,0
19.05.2019 23:00:00 10,1 9,6 - - 2 1 - - W 1011,4 7 0 0,2

tt = temperature
td = dewpoint
tt -20cm = temperature -20cm
tt -100cm = temperature -100cm
ff = wind speed
fx = gusts
dd = wind direction
ppp = reduced air pressure
vv = visibility
sd = sunshine duration
rr = precipitation

Next stations